sat.trackr.live / text

‹ back to catalog

STARLINK-35653

NORAD 66122 · 2025-237J

PAYLOAD ACTIVE UNKNOWN

§ Identity

Operator
Country
US
Launch date
2025-10-22
Launch site
AFWTR
Launch vehicle
Mass (kg)
RCS (m²)

Purposes: comms

External: N2YO · Heavens-Above · Gunter

§ Orbital elements

Epoch: 2026-05-25T00:05:12.842304Z

Period
94.10 min
Inclination
53.1585°
Eccentricity
0.0001112
Mean motion
15.30208849 rev/d
Perigee alt
474.4 km
Apogee alt
476.0 km
Semi-major
6,853.3 km
B*
6.1487e-4
RAAN
45.2116°
Arg perigee
69.6903°
Mean anomaly
290.4217°
Rev number
3,429

§ Raw data

STARLINK-356531 66122U 25237J   26145.00362086  .00017900  00000+0  61487-3 0  99942 66122  53.1585  45.2116 0001112  69.6903 290.4217 15.30208849 34296

JSON: /api/v1/satellites/66122 · /tle

For live sub-satellite position, see the globe view (requires WebGL).

§ Visibility from observer

Set your observer location to see the next 7 days of passes ≥ 10°. The values pass through the URL so the page stays shareable.

No JS? Fill the form by hand. The geolocation button needs JavaScript.